QPF
0.05 0.11 0.36 0.36 0.58 1.10 1.30 1.07 1.21 0.51 0.08 0.05 0.06 0.08 0.08 0.02 0.02 0.01 0.02 0.01 0.01 0.02
0.06 0.06 0.11 0.19 0.35 0.60 0.54 0.38 0.32 0.16 0.05 0.05 0.03 0.02 0.04 0.05 0.04 0.05 0.03 0.01 0.03 0.03
0.13 0.09 0.07 0.05 0.08 0.20 0.45 0.46 0.22 0.12 0.05 0.06 0.04 0.03 0.02 0.03 0.03 0.08 0.07 0.05 0.10 0.13
0.05 0.10 0.06 0.10 0.08 0.10 0.11 0.11 0.06 0.03 0.01 0.03 0.03 0.02 0.02 0.02 0.02 0.06 0.08 0.07 0.05 0.07
0.01 0.03 0.07 0.06 0.07 0.03 0.03 0.02 0.01 0.01 0.01 0.01 0.02 0.02 0.02 0.02 0.03 0.04 0.05 0.04 0.03 0.01
0.01 0.00 0.01 0.01 0.02 0.03 0.02 0.01 0.00 0.00 0.00 0.00 0.00 0.01 0.01 0.02 0.02 0.04 0.07 0.09 0.10 0.10
0.04 0.01 0.00 0.00 0.00 0.01 0.00 0.00 0.00 0.00 0.00 0.00 0.00 0.00 0.00 0.00 0.01 0.02 0.03 0.07 0.09 0.10
0.02 0.01 0.01 0.00 0.00 0.00 0.01 0.03 0.04 0.03 0.03 0.02 0.01 0.02 0.02 0.02 0.02 0.03 0.04 0.07 0.10 0.13
0.01 0.00 0.00 0.00 0.00 0.00 0.00 0.00 0.01 0.02 0.04 0.07 0.06 0.06 0.05 0.12 0.15 0.14 0.11 0.09 0.09 0.12
0.00 0.00 0.00 0.00 0.00 0.00 0.00 0.00 0.00 0.00 0.00 0.01 0.01 0.01 0.01 0.01 0.02 0.05 0.08 0.12 0.13 0.12
0.00 0.00 0.00 0.00 0.00 0.00 0.00 0.00 0.00 0.00 0.00 0.00 0.00 0.00 0.00 0.00 0.00 0.00 0.00 0.00 0.00 0.01
0.00 0.00 0.00 0.00 0.00 0.00 0.00 0.00 0.00 0.00 0.00 0.00 0.00 0.00 0.00 0.00 0.00 0.00 0.00 0.00 0.00 0.01
0.00 0.00 0.00 0.00 0.00 0.00 0.00 0.00 0.00 0.00 0.00 0.00 0.00 0.00 0.00 0.00 0.00 0.00 0.00 0.00 0.00 0.00
0.00 0.00 0.00 0.00 0.00 0.00 0.00 0.00 0.00 0.00 0.00 0.00 0.00 0.00 0.00 0.00 0.00 0.00 0.00 0.00 0.00 0.00
MSLP
1005.99 1005.62 1005.12 1003.00 1004.12 1004.44 1005.50 1006.80 1001.87 1001.00 1003.96 1005.15 1006.23 1007.16 1007.15 1007.43 1007.71 1008.62 1009.09 1009.35 1009.31 1009.69
1006.92 1006.12 1006.45 1006.54 1007.05 1008.24 1005.70 1007.44 1008.97 1007.37 1006.20 1007.01 1006.56 1006.92 1007.26 1007.63 1007.39 1008.08 1008.35 1008.46 1008.50 1009.07
1007.69 1007.54 1007.93 1007.82 1007.83 1008.22 1009.33 1008.79 1009.37 1007.85 1008.92 1009.03 1008.96 1008.40 1007.58 1007.54 1007.33 1007.99 1008.05 1008.06 1007.90 1008.11
1008.68 1008.47 1009.07 1009.80 1009.77 1011.28 1009.79 1009.52 1009.71 1010.50 1010.51 1010.91 1010.72 1010.23 1009.47 1009.22 1008.21 1007.95 1007.83 1007.78 1007.40 1007.27
1010.58 1010.60 1010.15 1010.82 1009.89 1011.65 1010.38 1012.32 1012.91 1010.95 1012.84 1012.62 1012.68 1011.77 1011.21 1010.68 1010.05 1009.68 1009.05 1007.93 1007.59 1007.07
1011.69 1011.71 1011.94 1012.61 1012.93 1013.01 1012.82 1012.68 1013.38 1012.37 1014.52 1014.11 1014.06 1013.26 1012.33 1011.70 1011.06 1010.65 1010.27 1009.65 1009.38 1008.14
1013.95 1013.91 1013.67 1013.27 1013.43 1013.83 1014.22 1014.34 1015.01 1015.30 1015.25 1015.37 1015.24 1014.86 1013.71 1012.79 1012.39 1011.97 1011.41 1011.51 1010.85 1010.74
1016.84 1016.52 1016.04 1015.02 1015.75 1015.96 1015.50 1016.61 1015.33 1015.92 1016.43 1016.10 1016.02 1015.57 1015.13 1013.27 1013.19 1012.94 1012.82 1012.49 1011.83 1011.98
1018.50 1018.49 1017.46 1017.39 1017.66 1017.50 1017.08 1016.30 1017.12 1017.07 1016.70 1016.86 1016.85 1015.79 1014.69 1015.62 1014.93 1014.81 1014.32 1013.74 1012.84 1013.08
1020.41 1019.16 1018.99 1018.89 1018.74 1018.37 1018.32 1018.90 1019.12 1018.33 1018.16 1017.93 1018.20 1018.18 1017.67 1016.67 1016.67 1015.50 1015.76 1014.12 1013.95 1013.91
1020.66 1019.93 1020.03 1019.68 1018.80 1018.55 1018.08 1018.77 1019.02 1019.16 1019.22 1019.58 1019.52 1018.91 1018.71 1018.01 1016.93 1016.57 1016.35 1016.10 1015.76 1014.79
1021.54 1021.48 1021.11 1020.58 1020.26 1020.04 1020.31 1020.19 1020.07 1020.47 1020.75 1020.58 1020.43 1020.15 1020.02 1019.03 1018.40 1018.07 1017.36 1016.82 1016.43 1015.54
1022.83 1022.45 1022.17 1021.97 1021.96 1022.08 1021.82 1021.72 1021.79 1021.88 1021.58 1021.88 1021.56 1020.86 1020.26 1019.92 1019.47 1018.54 1018.05 1017.63 1016.88 1016.04
1023.24 1023.52 1023.58 1023.64 1023.70 1023.53 1023.20 1023.10 1023.01 1022.75 1022.64 1022.64 1022.42 1022.12 1021.46 1020.74 1020.31 1019.98 1019.08 1018.19 1017.37 1016.93
Thickness
5565 5582 5600 5620 5618 5616 5622 5616 5662 5629 5649 5657 5659 5654 5656 5657 5655 5650 5647 5647 5648 5643
5541 5561 5573 5588 5592 5593 5613 5597 5590 5595 5620 5626 5643 5648 5647 5644 5651 5642 5644 5645 5645 5637
5527 5540 5552 5567 5576 5583 5574 5577 5579 5590 5591 5600 5609 5621 5635 5638 5641 5634 5636 5638 5640 5636
5516 5531 5538 5539 5554 5552 5560 5561 5566 5571 5578 5579 5588 5597 5607 5610 5619 5625 5628 5629 5634 5633
5503 5513 5514 5527 5547 5533 5552 5538 5533 5558 5551 5556 5561 5575 5581 5585 5588 5594 5603 5617 5621 5625
5494 5504 5508 5507 5512 5516 5524 5532 5533 5548 5531 5536 5544 5553 5560 5565 5570 5575 5580 5586 5587 5605
5477 5484 5495 5505 5507 5509 5512 5516 5515 5515 5517 5517 5519 5524 5536 5544 5547 5552 5557 5556 5562 5563
5451 5458 5470 5485 5484 5488 5495 5490 5505 5500 5497 5500 5500 5507 5512 5526 5527 5529 5531 5535 5539 5539
5436 5441 5455 5460 5460 5466 5473 5483 5477 5480 5484 5484 5482 5489 5498 5492 5500 5500 5502 5510 5513 5516
5419 5433 5435 5442 5447 5454 5456 5452 5451 5459 5460 5462 5457 5457 5462 5470 5469 5480 5477 5491 5492 5492
5419 5427 5428 5433 5443 5448 5454 5447 5444 5443 5443 5440 5441 5445 5445 5448 5456 5459 5461 5463 5464 5470
5413 5414 5418 5424 5429 5432 5429 5429 5430 5427 5424 5424 5425 5425 5424 5431 5434 5436 5440 5443 5445 5452
5405 5409 5411 5413 5412 5410 5412 5413 5412 5410 5412 5409 5411 5415 5417 5417 5416 5422 5424 5424 5428 5434
5400 5398 5397 5396 5395 5395 5397 5396 5395 5396 5396 5394 5393 5393 5395 5399 5399 5399 5404 5409 5413 5414